Photometre #854[NE_1.6_Dp] OHP_OBSERVATOIRE AOT

File : 20200928_854.hum

28/09/2020,06:22:05,TEMP=9.1,BA=5.00,STAT.A,ExtBa=12.20
28/09/2020,06:25:42,TEMP=9.3,BA=5.00,STAT.A,ExtBa=12.10
28/09/2020,06:29:55,TEMP=9.2,BA=5.00,STAT.A,ExtBa=12.10
28/09/2020,06:34:57,TEMP=9.1,BA=4.92,STAT.A,ExtBa=12.10
28/09/2020,06:41:01,TEMP=9.1,BA=4.96,STAT.A,ExtBa=12.10
28/09/2020,06:48:31,TEMP=9.1,BA=4.96,STAT.A,ExtBa=12.10
28/09/2020,06:58:01,TEMP=9.2,BA=4.92,STAT.B,ExtBa=12.10
28/09/2020,07:02:33,TEMP=9.3,BA=4.96,STAT.A,ExtBa=12.10
28/09/2020,07:07:40,TEMP=9.4,BA=4.96,STAT.A,ExtBa=12.10
28/09/2020,07:13:27,TEMP=9.4,BA=4.96,STAT.A,ExtBa=12.10
28/09/2020,07:20:01,TEMP=9.5,BA=4.96,STAT.A,ExtBa=12.10
28/09/2020,07:27:36,TEMP=9.5,BA=4.88,STAT.C,ExtBa=12.10
28/09/2020,07:36:26,TEMP=9.6,BA=4.92,STAT.A,ExtBa=12.10
28/09/2020,07:59:35,TEMP=9.8,BA=4.84,STAT.A,ExtBa=12.20
28/09/2020,08:15:17,TEMP=10.1,BA=4.92,STAT.A,ExtBa=12.10
28/09/2020,08:28:11,TEMP=10.4,BA=4.92,STAT.F,ExtBa=12.10
28/09/2020,08:43:10,TEMP=10.8,BA=4.96,STAT.D,ExtBa=12.10
28/09/2020,08:58:10,TEMP=12.0,BA=4.92,STAT.D,ExtBa=12.10
28/09/2020,09:13:10,TEMP=13.8,BA=4.96,STAT.D,ExtBa=12.10
28/09/2020,09:28:12,TEMP=14.1,BA=4.92,STAT.F,ExtBa=12.10
28/09/2020,09:35:50,TEMP=14.3,BA=4.84,STAT.h
28/09/2020,09:36:06,TEMP=14.3,BA=4.84,STAT.h
28/09/2020,09:43:10,TEMP=13.9,BA=5.00,STAT.D,ExtBa=12.90
28/09/2020,09:58:10,TEMP=14.5,BA=5.04,STAT.D,ExtBa=13.20
28/09/2020,10:13:10,TEMP=15.0,BA=5.08,STAT.D,ExtBa=13.30
28/09/2020,10:28:12,TEMP=15.1,BA=5.08,STAT.F,ExtBa=13.30
28/09/2020,10:43:10,TEMP=16.0,BA=5.08,STAT.D,ExtBa=13.30
28/09/2020,10:58:10,TEMP=15.3,BA=5.12,STAT.D,ExtBa=13.30
28/09/2020,11:13:10,TEMP=14.8,BA=5.12,STAT.D,ExtBa=13.30
28/09/2020,11:28:12,TEMP=14.8,BA=5.12,STAT.F,ExtBa=13.40
28/09/2020,11:43:10,TEMP=15.2,BA=5.16,STAT.D,ExtBa=13.40
28/09/2020,11:58:10,TEMP=15.2,BA=5.16,STAT.D,ExtBa=13.40
28/09/2020,12:13:10,TEMP=15.3,BA=5.16,STAT.D,ExtBa=13.50
28/09/2020,12:28:12,TEMP=15.2,BA=5.16,STAT.F,ExtBa=13.50
28/09/2020,12:52:20,TEMP=19.0,BA=5.16,STAT.D,ExtBa=12.50
28/09/2020,12:58:10,TEMP=18.6,BA=5.16,STAT.D,ExtBa=12.70
28/09/2020,13:13:10,TEMP=18.9,BA=5.20,STAT.D,ExtBa=13.10
28/09/2020,13:28:11,TEMP=18.5,BA=5.20,STAT.F,ExtBa=13.10
28/09/2020,13:52:00,TEMP=19.6,BA=5.16,STAT.D,ExtBa=12.60
28/09/2020,13:58:10,TEMP=18.8,BA=5.16,STAT.D,ExtBa=12.80
28/09/2020,14:13:10,TEMP=18.1,BA=5.20,STAT.D,ExtBa=13.00
28/09/2020,14:28:11,TEMP=18.3,BA=5.20,STAT.F,ExtBa=13.10
28/09/2020,14:52:21,TEMP=18.9,BA=5.20,STAT.A,ExtBa=12.60
28/09/2020,14:56:47,TEMP=18.2,BA=5.20,STAT.A,ExtBa=12.70
28/09/2020,15:09:27,TEMP=17.7,BA=5.20,STAT.A,ExtBa=12.90
28/09/2020,15:19:56,TEMP=17.6,BA=5.20,STAT.A,ExtBa=12.90
28/09/2020,15:28:46,TEMP=17.3,BA=5.20,STAT.C,ExtBa=12.90
28/09/2020,15:43:20,TEMP=17.4,BA=5.20,STAT.b=6.0
28/09/2020,15:43:45,TEMP=17.4,BA=5.20,STAT.A,ExtBa=12.70
28/09/2020,15:45:50,TEMP=17.3,BA=5.20,STAT.A,ExtBa=12.70
28/09/2020,15:48:41,TEMP=17.0,BA=5.20,STAT.A,ExtBa=12.70
28/09/2020,15:53:47,TEMP=16.7,BA=5.20,STAT.A,ExtBa=12.80
28/09/2020,15:58:20,TEMP=16.6,BA=5.20,STAT.B,ExtBa=12.80
28/09/2020,16:08:09,TEMP=16.5,BA=5.20,STAT.A,ExtBa=12.70
28/09/2020,16:15:19,TEMP=16.2,BA=5.24,STAT.A,ExtBa=12.80
28/09/2020,16:21:23,TEMP=15.9,BA=5.24,STAT.A,ExtBa=12.80
28/09/2020,16:26:25,TEMP=15.8,BA=5.24,STAT.A,ExtBa=12.80
28/09/2020,16:30:38,TEMP=15.7,BA=5.24,STAT.A,ExtBa=12.70
28/09/2020,16:38:54,TEMP=15.4,BA=5.24,STAT.A,ExtBa=12.80